Wind_Speed
8 8 8 8 8 8 8 7 7 6 5 4 4 3 2 2 2 1 1 2 2 2 3 3 3 3 3 3 2 2 2 1 1 2 3 4 4 5 5 6 6 6 7
8 7 8 8 8 8 8 8 7 6 5 5 4 4 3 2 2 1 1 2 2 2 3 2 2 3 3 3 3 3 2 1 0 1 2 3 4 5 5 5 5 6 7
8 8 8 8 9 9 9 8 8 7 6 5 4 4 3 2 2 1 1 1 2 2 3 2 2 2 3 2 3 3 2 2 1 0 1 2 3 4 5 6 6 6 7
8 8 8 9 8 9 8 8 8 7 6 6 4 4 3 2 2 1 0 1 2 2 3 3 2 2 2 2 2 2 1 1 1 1 1 1 2 4 5 6 6 7 7
9 8 9 9 8 9 8 8 8 7 6 6 5 4 3 2 2 2 1 0 1 2 3 3 3 3 2 2 2 1 1 1 1 1 1 2 2 3 4 5 6 7 8
9 9 9 9 9 9 9 9 9 7 6 6 5 5 4 4 4 3 2 1 0 2 2 2 3 3 3 2 2 2 1 1 2 2 1 2 3 3 4 4 5 6 7
10 9 9 9 10 10 10 9 9 8 8 8 6 6 5 5 5 4 3 3 2 1 1 1 2 2 2 3 3 2 2 2 2 2 1 1 2 3 3 4 5 6 7
9 9 9 9 10 10 10 10 9 8 8 8 8 6 6 6 6 5 4 4 3 2 1 1 1 1 2 2 3 2 2 2 2 2 1 1 2 3 4 4 5 6 7
8 9 9 9 10 10 10 10 10 9 8 8 8 7 7 6 6 5 5 4 4 3 2 2 1 1 1 1 2 2 3 2 2 2 3 3 3 3 4 5 6 7 7
8 8 8 9 9 10 10 10 9 9 9 9 9 8 7 6 6 6 6 5 5 5 5 4 4 3 3 3 3 3 4 4 4 4 4 4 5 5 6 6 7 8 8
8 8 8 8 8 9 9 10 9 9 8 8 8 8 7 7 6 7 7 6 6 6 6 6 6 5 5 5 5 5 6 6 6 6 6 6 6 7 8 8 9 9 10
8 8 8 8 8 8 9 9 9 9 9 8 8 8 8 8 7 7 7 7 7 7 7 7 7 7 7 7 7 7 7 8 8 8 9 8 9 9 10 10 10 11 12
7 8 8 8 9 9 9 9 9 8 9 9 9 9 8 8 8 8 8 8 8 7 8 8 8 8 9 9 9 9 9 10 10 10 10 10 11 12 12 12 12 13 14
9 9 8 8 9 9 8 9 9 9 9 10 10 10 10 9 9 9 9 9 9 9 9 9 9 9 9 10 11 11 11 12 12 12 12 13 13 14 14 14 14 15 16
9 8 8 8 9 9 9 9 9 9 10 10 10 10 10 10 10 11 10 11 11 11 11 11 11 11 11 11 12 13 13 13 14 14 14 15 15 15 15 15 16 17 18
9 8 8 9 10 10 10 10 10 10 10 10 10 10 10 10 11 11 12 13 13 12 12 12 13 13 13 13 13 14 14 14 14 15 15 16 16 16 17 17 18 18 19
9 9 9 9 10 11 11 11 11 11 11 11 11 11 11 11 11 11 11 12 12 13 13 13 13 14 14 14 14 15 15 15 16 17 17 18 18 18 18 19 20 20 20
10 10 10 10 10 11 12 11 12 12 11 11 11 12 13 13 13 13 13 13 13 14 14 14 14 14 15 16 16 16 16 17 18 18 18 19 19 20 21 21 21 21 22
11 11 11 11 12 12 12 12 12 12 12 13 13 13 13 14 14 14 14 15 15 15 15 16 16 17 17 18 18 19 19 19 20 20 20 20 21 21 21 22 22 23 24
13 12 12 12 12 13 13 13 13 13 13 13 14 14 14 15 15 15 15 15 16 16 16 17 18 18 18 19 19 20 20 21 21 22 22 23 23 23 24 24 24 25 26
13 13 13 13 13 13 13 13 14 14 14 14 14 14 15 15 16 16 16 17 17 17 17 18 19 19 20 20 21 21 22 23 23 24 24 24 25 25 25 26 26 27 28
14 14 13 13 14 14 14 14 14 14 14 15 15 15 16 16 17 17 18 18 18 18 19 20 20 21 21 21 22 23 24 25 25 25 26 26 27 27 27 27 28 29 29
14 14 14 14 14 14 14 15 15 15 15 15 16 16 16 17 17 18 18 18 19 20 21 21 21 22 22 22 23 24 25 25 25 26 27 27 28 28 28 29 30 30 31
15 15 15 15 15 15 15 15 16 16 16 16 16 16 17 17 18 18 18 19 20 20 20 21 21 22 23 23 24 24 25 25 26 27 29 29 29 29 30 30 31 31 32
17 16 16 16 16 16 16 16 16 17 17 17 18 18 18 18 18 18 18 19 19 20 20 21 22 23 23 24 25 25 25 27 28 28 29 30 30 30 30 31 31 32 33
18 18 18 17 17 17 17 16 16 17 17 17 17 18 18 18 18 18 18 18 19 19 21 22 23 23 24 24 25 26 27 28 28 29 29 30 31 31 32 33 34 34 35
Wind_Direction
255 255 247 236 235 237 239 234 227 222 220 216 216 222 240 269 278 296 358 0 5 18 24 22 20 18 25 28 40 63 82 114 156 185 198 206 216 221 224 224 228 225 226
255 255 247 238 235 233 232 227 225 221 214 214 223 232 240 255 271 284 25 17 5 12 22 14 10 21 25 32 48 62 66 74 87 210 215 219 225 221 222 228 233 230 231
252 255 246 234 233 231 227 223 221 221 217 214 224 239 248 245 245 261 85 41 12 14 20 19 18 27 30 41 56 62 63 50 33 327 240 232 231 234 235 236 236 237 240
250 249 240 234 231 224 219 222 223 221 220 212 215 232 243 242 224 206 154 67 32 27 31 42 41 31 36 53 48 53 51 36 24 357 279 254 246 241 240 242 241 241 244
248 244 235 230 227 223 222 222 221 219 218 216 216 227 234 230 214 210 214 106 57 40 35 43 47 43 45 44 38 48 46 37 10 348 303 267 263 265 255 251 247 248 249
241 239 238 232 229 229 227 228 223 220 221 221 218 228 231 224 216 214 211 208 92 43 38 43 48 49 47 44 42 39 38 25 355 334 307 272 269 268 263 257 253 252 253
241 240 236 231 230 231 229 227 223 219 223 223 219 223 224 219 217 218 222 227 230 310 12 32 42 50 49 44 36 29 28 17 5 345 302 286 281 270 269 261 258 260 259
242 240 236 235 232 229 225 224 223 223 228 229 221 223 222 225 223 224 228 229 235 257 296 333 2 22 31 37 35 33 21 15 9 359 332 310 297 291 289 280 273 269 265
242 237 236 238 235 227 224 222 224 223 228 229 223 223 227 229 228 232 232 235 238 246 259 278 285 293 319 346 2 9 1 358 351 336 325 314 309 308 301 293 286 280 276
238 234 236 236 233 227 226 224 224 224 230 233 225 222 224 225 230 233 237 243 249 253 256 268 277 280 288 305 312 324 326 324 324 326 325 320 313 308 306 302 295 286 282
236 233 235 230 227 227 228 227 226 225 226 227 219 221 226 230 236 238 240 245 252 255 254 263 277 278 280 288 299 306 309 309 310 309 310 312 311 308 304 300 295 290 287
237 235 233 229 228 229 229 224 224 224 224 223 224 229 234 236 238 241 244 249 255 259 262 265 274 277 277 281 287 291 294 299 302 301 302 302 303 302 301 298 295 293 291
239 237 234 232 234 235 231 226 225 227 227 226 229 235 240 242 244 247 250 255 259 267 272 275 275 275 276 279 281 283 286 290 293 295 297 297 298 298 297 294 293 292 291
244 243 237 236 233 233 232 228 229 231 230 231 234 240 245 247 247 254 261 262 264 267 273 277 279 279 280 281 280 282 283 285 287 289 291 292 293 294 294 292 292 292 291
248 242 237 236 232 233 236 234 231 232 233 234 236 243 245 249 253 258 262 265 269 268 272 273 276 279 281 283 283 281 283 286 288 289 290 289 289 290 290 292 293 293 291
248 243 241 241 236 235 238 237 234 235 237 238 240 246 250 254 259 262 265 267 270 270 271 272 276 279 280 282 284 284 284 286 290 293 294 293 291 289 289 290 291 293 292
245 243 241 240 238 239 239 238 236 239 242 245 247 250 254 258 262 266 268 272 273 272 272 275 277 279 281 283 284 285 285 286 289 291 292 292 292 293 293 292 291 292 291
242 243 243 241 241 242 239 239 241 243 246 248 251 255 257 260 263 267 270 274 275 275 275 275 276 278 280 283 284 285 286 288 290 290 291 292 292 293 294 294 293 293 293
237 244 247 244 245 243 240 241 245 248 250 253 255 258 259 261 263 266 270 273 275 275 276 277 277 279 281 282 281 282 284 287 289 290 291 292 293 293 293 293 293 293 293
238 244 246 245 246 245 244 244 248 250 254 257 258 261 262 262 265 268 270 273 275 276 276 277 278 279 281 282 282 282 283 285 288 289 290 291 292 291 292 293 293 293 293
241 244 246 247 249 250 248 248 250 252 256 258 259 261 263 265 268 270 272 274 275 276 279 279 279 280 282 284 283 282 283 285 287 289 290 291 290 290 291 292 292 293 294
243 245 248 250 252 252 252 252 254 255 256 259 261 263 264 267 269 271 274 275 275 276 278 280 280 280 283 285 285 285 286 287 288 289 291 291 292 290 291 292 293 293 293
246 248 251 255 255 254 254 255 257 258 259 262 265 266 267 269 270 272 275 276 277 278 279 280 281 283 283 286 288 288 288 288 289 289 291 292 292 292 292 292 293 294 294
248 252 256 258 258 258 258 257 259 261 263 265 268 269 268 269 271 272 274 277 279 279 282 282 284 286 286 286 288 288 289 290 291 292 293 293 293 293 293 291 292 293 293
248 251 255 257 258 259 259 259 260 261 264 266 267 267 269 271 272 274 277 278 278 277 280 283 283 284 286 288 289 290 290 290 291 291 292 292 292 292 294 293 293 294 294
247 250 252 254 257 260 261 259 261 264 265 266 267 268 270 271 273 274 276 279 281 281 281 282 284 286 288 290 291 291 292 292 291 292 293 293 292 292 293 294 294 294 294
Height
5879 5879 5879 5880 5881 5881 5882 5882 5883 5883 5883 5884 5884 5884 5884 5883 5883 5882 5881 5880 5879 5879 5878 5877 5876 5875 5874 5874 5873 5872 5872 5872 5871 5872 5872 5872 5872 5872 5873 5873 5873 5874 5874
5877 5877 5878 5878 5879 5880 5880 5881 5882 5882 5883 5883 5883 5883 5883 5883 5882 5882 5881 5880 5880 5879 5878 5877 5876 5876 5875 5874 5874 5873 5873 5872 5872 5872 5872 5872 5873 5872 5872 5873 5873 5873 5873
5875 5876 5876 5876 5877 5878 5879 5880 5880 5881 5882 5882 5882 5883 5883 5882 5882 5882 5881 5881 5880 5879 5878 5877 5877 5876 5875 5875 5874 5874 5873 5873 5872 5872 5872 5872 5872 5872 5872 5872 5872 5873 5873
5874 5874 5874 5875 5876 5877 5878 5878 5879 5880 5881 5881 5882 5882 5882 5882 5882 5882 5881 5881 5880 5879 5878 5878 5877 5876 5876 5875 5875 5874 5874 5873 5873 5872 5872 5872 5871 5871 5871 5871 5871 5871 5872
5872 5872 5873 5874 5874 5875 5876 5877 5878 5879 5880 5880 5881 5881 5882 5882 5882 5882 5881 5881 5880 5880 5879 5878 5877 5877 5876 5876 5875 5874 5874 5873 5873 5872 5872 5871 5871 5870 5870 5870 5870 5870 5870
5870 5870 5871 5872 5873 5874 5875 5876 5877 5877 5878 5879 5880 5880 5881 5881 5881 5881 5881 5881 5880 5880 5879 5878 5878 5877 5877 5876 5876 5875 5874 5873 5873 5872 5871 5871 5870 5870 5870 5869 5869 5869 5869
5867 5868 5869 5870 5871 5872 5873 5874 5875 5876 5877 5878 5879 5879 5880 5880 5881 5881 5881 5881 5880 5880 5879 5879 5878 5878 5877 5876 5876 5875 5874 5873 5873 5872 5871 5870 5870 5869 5869 5869 5868 5868 5867
5865 5866 5867 5868 5869 5870 5871 5873 5874 5875 5876 5876 5877 5878 5878 5879 5880 5880 5880 5880 5880 5880 5879 5879 5878 5878 5877 5877 5876 5875 5874 5874 5873 5872 5871 5870 5870 5869 5868 5868 5867 5867 5866
5863 5864 5865 5866 5867 5868 5870 5871 5872 5873 5874 5875 5876 5877 5877 5878 5878 5879 5879 5879 5879 5879 5879 5879 5878 5878 5877 5877 5876 5875 5874 5873 5873 5872 5871 5870 5869 5868 5867 5867 5866 5866 5865
5861 5862 5863 5864 5865 5866 5868 5869 5870 5871 5872 5873 5874 5875 5876 5877 5877 5878 5878 5878 5878 5878 5878 5878 5878 5877 5877 5876 5876 5875 5874 5873 5872 5871 5870 5869 5868 5867 5866 5865 5864 5863 5863
5859 5860 5861 5862 5863 5865 5866 5867 5869 5870 5871 5872 5873 5874 5875 5875 5876 5877 5877 5877 5877 5877 5877 5877 5877 5876 5876 5875 5875 5874 5873 5872 5871 5870 5869 5868 5867 5866 5865 5864 5863 5862 5861
5857 5858 5859 5860 5862 5863 5864 5865 5867 5868 5869 5870 5871 5872 5873 5874 5874 5875 5875 5875 5875 5876 5875 5875 5875 5875 5874 5874 5873 5872 5872 5871 5870 5869 5867 5866 5865 5864 5863 5862 5860 5859 5858
5856 5857 5858 5859 5860 5861 5862 5863 5865 5866 5867 5868 5870 5871 5872 5872 5873 5873 5873 5874 5874 5874 5874 5873 5873 5873 5872 5872 5871 5870 5869 5869 5868 5866 5865 5864 5863 5862 5860 5859 5858 5856 5855
5854 5855 5856 5857 5858 5859 5860 5862 5863 5864 5865 5866 5868 5869 5870 5870 5871 5871 5871 5871 5871 5871 5871 5871 5871 5870 5870 5869 5868 5867 5867 5866 5865 5864 5862 5861 5860 5859 5857 5856 5854 5852 5851
5852 5853 5854 5855 5856 5857 5858 5860 5861 5862 5863 5864 5865 5866 5867 5868 5868 5868 5869 5869 5869 5869 5869 5868 5868 5868 5867 5866 5865 5864 5863 5862 5861 5860 5859 5858 5856 5855 5853 5852 5850 5848 5846
5850 5851 5852 5853 5854 5855 5856 5857 5859 5860 5861 5862 5863 5863 5864 5865 5865 5866 5866 5866 5865 5865 5865 5865 5865 5864 5864 5863 5862 5861 5860 5859 5857 5856 5855 5854 5852 5851 5849 5848 5846 5844 5842
5848 5848 5849 5850 5851 5852 5854 5855 5856 5857 5858 5859 5860 5861 5861 5862 5862 5862 5862 5862 5862 5862 5862 5861 5861 5860 5860 5859 5858 5857 5856 5855 5853 5852 5851 5849 5848 5846 5844 5843 5841 5839 5836
5845 5846 5847 5848 5849 5850 5851 5852 5853 5854 5855 5856 5857 5857 5858 5859 5859 5859 5859 5859 5858 5858 5858 5857 5857 5856 5856 5855 5854 5853 5852 5850 5849 5848 5846 5845 5843 5841 5839 5837 5835 5833 5831
5842 5843 5844 5845 5846 5847 5848 5849 5850 5851 5852 5853 5853 5854 5854 5855 5855 5855 5855 5854 5854 5854 5854 5853 5853 5852 5851 5850 5849 5848 5847 5845 5844 5843 5841 5839 5838 5836 5833 5831 5829 5827 5825
5839 5840 5841 5842 5843 5844 5845 5846 5847 5848 5848 5849 5849 5850 5850 5850 5850 5850 5850 5850 5849 5849 5849 5848 5848 5847 5846 5845 5844 5843 5842 5840 5839 5837 5835 5834 5832 5830 5827 5825 5823 5820 5818
5835 5837 5838 5839 5840 5841 5841 5842 5843 5844 5844 5845 5845 5845 5846 5846 5846 5846 5845 5845 5845 5844 5844 5843 5842 5842 5841 5840 5839 5837 5836 5835 5833 5831 5829 5827 5825 5823 5821 5818 5816 5813 5811
5832 5833 5834 5835 5836 5837 5838 5839 5839 5840 5840 5840 5841 5841 5841 5841 5841 5841 5840 5840 5839 5839 5838 5837 5837 5836 5835 5834 5832 5831 5830 5828 5826 5824 5822 5820 5818 5816 5813 5811 5808 5806 5803
5828 5829 5830 5831 5832 5833 5834 5834 5835 5835 5836 5836 5836 5836 5836 5836 5835 5835 5835 5834 5834 5833 5832 5831 5831 5830 5829 5827 5826 5824 5823 5821 5819 5817 5815 5813 5810 5808 5806 5803 5800 5798 5795
5824 5825 5826 5827 5827 5828 5829 5830 5830 5830 5831 5831 5831 5831 5831 5830 5830 5830 5829 5829 5828 5827 5827 5826 5824 5824 5822 5821 5819 5817 5815 5814 5812 5810 5807 5805 5803 5800 5797 5795 5792 5789 5786
5819 5820 5821 5822 5823 5823 5824 5825 5825 5825 5825 5825 5825 5825 5825 5825 5824 5824 5823 5823 5822 5821 5821 5820 5818 5817 5816 5814 5812 5810 5808 5806 5804 5802 5800 5797 5795 5792 5789 5786 5783 5780 5776
5813 5815 5816 5817 5818 5818 5819 5819 5820 5820 5820 5820 5820 5820 5820 5819 5819 5818 5818 5817 5816 5815 5814 5813 5812 5811 5809 5807 5805 5803 5801 5798 5796 5794 5791 5789 5786 5783 5780 5777 5774 5770 5767